RH
48 50 48 44 43 41 41 41 40 37 32 33 33 21 22 31 27 22 21 20 20 19 19 19 20 21 22 21 21 20 19 19 19 19 18 18 18 18 17 16 17 17 17 17 16 17 17 17 18 18 18 19 18 19 21 24 25 25 27 25 26 24 21 21 19 21 16 18 18 16 32 46 72 70 40 40 29 21 28 29 40 56 72 77 78 81 84 88
49 50 50 46 44 42 41 42 42 39 34 32 35 26 19 29 29 23 23 21 20 20 19 20 20 21 22 22 22 21 21 20 19 20 20 19 19 18 18 18 18 18 18 18 17 17 17 18 19 18 22 24 25 32 35 41 44 35 31 29 29 27 25 22 19 22 16 20 17 20 55 63 56 49 43 51 32 28 51 59 68 81 94 102 101 95 89 92
49 50 52 50 45 44 42 42 44 42 37 32 35 32 20 26 31 25 23 23 21 21 19 20 21 21 22 22 22 22 21 21 20 21 20 20 20 19 19 18 18 18 18 18 17 18 19 20 25 29 35 39 39 43 49 57 52 44 44 39 37 35 28 23 21 20 18 25 19 23 59 59 44 48 52 58 46 56 82 88 95 98 101 105 104 103 99 97
52 50 52 53 48 45 43 42 44 44 41 34 34 36 25 22 32 28 24 24 22 21 20 21 22 22 23 22 22 22 22 22 22 21 21 21 20 19 19 18 19 18 18 19 18 21 24 27 39 45 44 47 46 52 72 70 54 65 74 55 45 42 34 34 33 27 23 29 29 32 56 64 63 71 74 81 77 80 90 91 96 102 104 103 101 102 101 98
56 53 51 54 51 46 45 43 43 45 43 37 32 37 31 22 30 31 25 26 23 22 22 22 24 25 25 25 24 23 23 24 24 23 23 22 21 21 20 20 20 19 20 21 24 34 40 41 48 53 56 60 58 71 93 78 65 89 89 65 58 51 53 65 65 56 39 36 51 61 74 87 92 93 96 103 101 93 93 97 99 103 104 101 101 102 101 101
61 56 53 55 54 49 46 45 44 45 45 41 33 36 37 24 26 33 28 26 25 23 23 24 27 28 29 30 27 26 25 25 27 26 24 24 23 22 21 21 21 21 24 25 33 51 56 56 58 68 84 84 76 85 95 84 85 100 88 77 77 66 74 91 91 85 70 65 80 88 92 99 100 99 102 105 105 96 96 103 103 102 102 100 101 100 100 102
69 61 57 56 56 52 48 47 46 46 46 44 36 33 39 30 24 33 31 27 27 24 25 27 29 33 33 32 29 28 28 26 27 27 26 25 23 23 22 23 25 24 30 35 48 65 67 72 79 87 100 94 83 90 96 94 98 102 95 93 92 87 93 99 100 97 93 94 97 98 99 100 101 102 103 103 104 102 100 103 103 101 101 101 101 101 101 100
80 68 61 59 58 54 49 48 48 48 47 46 40 32 38 36 24 31 34 28 27 25 25 28 30 35 35 34 33 33 37 34 30 29 27 25 24 24 24 25 28 29 42 52 65 81 80 83 94 97 102 95 85 90 99 100 100 101 97 94 97 102 102 99 101 100 99 101 100 101 102 100 101 101 101 101 101 102 101 100 100 101 100 102 99 97 96 93
88 77 67 63 61 58 52 50 50 51 49 47 45 34 35 41 28 28 36 31 28 27 25 27 31 35 37 36 35 41 47 39 33 31 27 27 26 25 27 29 31 42 67 72 73 90 90 88 97 100 99 96 90 95 103 102 100 99 95 96 100 102 101 100 100 99 101 101 100 102 102 101 101 101 101 100 101 100 101 101 100 100 100 99 96 95 92 86
91 83 73 67 65 62 54 51 52 54 52 48 48 38 33 41 35 26 35 34 28 28 25 27 32 36 43 46 50 61 55 42 38 32 28 29 27 28 31 33 37 56 82 81 76 89 95 95 98 96 95 96 93 94 99 97 94 96 96 100 103 101 100 101 100 99 101 100 102 102 100 101 99 101 101 99 102 100 100 100 99 101 100 98 96 91 82 75
89 86 79 71 69 68 58 54 54 55 56 51 49 44 33 39 41 28 33 37 29 29 25 26 34 37 51 67 79 85 60 41 43 34 31 32 29 33 34 36 50 65 77 83 86 86 90 99 95 89 88 87 86 85 90 94 94 97 98 98 103 105 101 99 100 100 99 100 105 104 100 102 99 98 100 100 99 99 103 101 102 102 97 93 87 82 76 75
91 85 81 75 72 73 66 57 56 57 59 56 50 47 37 36 44 32 30 38 32 29 26 27 37 42 58 75 86 92 63 42 48 41 36 36 34 37 37 43 61 74 78 85 93 89 93 103 98 94 90 84 89 93 95 98 98 100 99 98 105 109 104 100 101 101 100 98 100 104 103 101 97 90 89 92 89 93 96 91 94 94 90 82 72 85 88 82
95 85 80 78 75 78 74 63 59 59 61 61 54 50 42 34 44 39 29 38 35 29 28 29 39 52 71 83 83 81 62 47 53 52 47 42 39 41 42 48 64 81 86 87 93 96 100 101 99 102 98 94 99 101 101 101 100 100 99 98 101 106 107 102 99 100 102 98 93 97 101 97 92 87 86 89 86 90 93 88 95 96 87 72 69 96 97 81
100 91 81 77 77 80 81 72 63 61 63 65 59 54 47 35 42 44 31 34 39 31 29 31 40 58 80 95 87 67 61 65 62 57 54 48 45 47 50 56 72 89 92 90 90 90 95 99 102 101 96 97 101 100 101 100 100 100 92 88 92 96 99 101 99 100 101 100 95 92 92 90 93 95 94 96 92 94 97 91 94 92 79 68 72 88 84 77
102 98 86 78 77 79 83 81 71 65 66 67 64 58 52 40 39 47 36 32 41 34 29 34 39 55 78 99 93 64 66 80 70 58 55 52 50 55 63 71 88 100 93 87 86 87 89 92 95 92 91 98 100 99 100 99 102 102 87 78 86 89 89 93 96 102 102 92 83 77 74 74 88 103 103 99 91 88 93 87 81 75 71 74 71 67 63 64
102 101 94 83 77 78 83 86 80 71 69 70 69 63 57 46 37 46 42 32 41 38 30 36 40 58 82 99 99 75 66 74 69 61 58 57 56 66 83 87 93 97 90 90 97 94 86 84 87 90 97 99 97 99 100 100 102 101 89 77 82 87 88 91 88 93 100 91 75 65 61 57 65 82 85 83 73 69 82 84 76 64 62 71 61 55 59 50
101 101 99 91 81 78 81 89 88 78 73 73 72 68 62 51 38 46 49 35 40 42 32 35 49 71 84 92 104 89 69 68 68 62 60 62 61 75 96 93 88 86 83 94 103 94 86 92 97 98 102 99 97 101 100 105 105 95 86 77 81 85 83 88 82 74 76 78 70 59 54 49 47 49 47 48 47 52 67 66 56 50 48 52 46 47 54 46
101 100 101 98 85 79 80 88 94 86 79 76 74 73 65 56 44 45 53 41 40 47 37 33 52 73 79 88 103 95 76 69 68 63 60 65 66 80 97 93 85 80 78 85 91 90 92 100 101 98 101 99 101 100 92 97 95 86 80 69 69 71 65 67 63 54 52 52 53 51 51 51 48 45 39 36 38 49 61 53 41 41 39 37 36 37 42 50
102 99 101 101 90 82 80 86 95 94 86 79 77 76 69 61 49 43 51 49 45 51 43 35 51 68 77 90 98 92 84 76 72 65 60 66 73 84 99 99 90 88 89 85 87 96 98 101 99 96 101 99 100 101 93 91 88 88 89 76 67 61 53 51 46 43 46 45 47 51 55 55 51 52 53 49 49 50 51 47 38 34 34 32 34 34 36 55
102 100 100 102 95 83 80 85 94 96 92 85 79 79 74 65 53 43 47 51 48 50 48 39 49 63 69 83 90 89 91 86 78 68 60 66 76 87 100 100 97 100 95 84 91 102 100 101 99 98 101 95 95 97 93 97 96 95 91 75 68 59 48 49 51 53 55 49 45 49 56 55 51 57 60 58 63 53 39 41 37 33 35 32 35 36 34 57
97 103 100 101 99 86 80 84 91 95 95 91 83 81 79 68 58 47 43 52 48 47 52 41 44 61 63 72 84 92 100 94 82 70 60 67 78 88 95 97 100 102 92 85 96 102 99 101 100 101 100 95 95 87 83 97 99 95 87 70 64 60 52 57 69 78 72 55 44 50 63 64 61 66 62 62 75 60 42 46 41 40 43 40 48 43 33 53
87 102 101 100 101 90 81 84 91 92 92 94 88 83 82 71 62 52 42 52 53 44 51 45 41 55 61 64 74 90 104 98 87 72 59 67 82 86 89 97 103 100 96 96 101 101 99 101 99 100 101 100 97 81 83 100 101 100 98 85 72 59 55 68 89 97 84 68 66 75 85 84 81 80 66 64 77 61 49 59 52 48 46 53 75 61 45 60
80 99 103 102 101 93 84 86 92 93 89 93 93 87 84 74 65 58 44 49 58 48 48 51 42 43 54 61 67 87 106 103 92 76 62 64 73 80 89 100 103 101 101 101 102 101 99 101 101 101 101 92 79 78 94 101 100 103 98 93 82 64 67 86 98 101 92 85 92 100 101 95 88 82 65 53 63 57 47 55 57 53 44 53 80 68 58 71
76 95 104 102 102 97 88 89 95 96 90 92 96 90 86 79 67 62 49 45 59 55 46 53 49 40 48 62 74 86 97 105 95 78 72 65 65 83 97 101 101 101 102 102 102 100 98 102 102 95 87 70 64 88 106 100 99 101 95 95 86 77 89 101 99 99 99 97 98 101 101 97 88 81 71 53 53 60 51 46 51 53 47 46 57 56 65 78
73 87 100 101 103 101 94 95 97 97 94 92 95 92 87 82 70 63 55 45 57 61 50 53 55 44 44 69 90 81 79 103 101 82 76 69 72 94 102 99 101 102 101 102 100 95 97 102 94 81 70 58 68 97 104 96 100 102 99 93 79 83 99 101 100 100 99 98 99 102 100 99 95 86 87 77 63 67 60 48 54 62 57 46 40 46 63 73
68 78 95 101 103 103 99 98 96 99 100 92 93 95 89 84 73 66 58 48 55 64 55 51 56 49 45 77 100 77 71 99 103 89 79 70 76 91 93 91 99 105 101 103 100 90 96 102 88 73 66 65 83 103 100 92 95 93 92 88 78 91 103 99 101 102 98 98 98 101 97 99 101 88 87 92 84 80 65 50 55 60 54 44 40 48 56 53
64 73 90 100 102 104 102 98 95 101 102 93 93 95 92 85 75 68 61 53 54 64 61 52 55 53 50 78 98 77 71 87 94 94 84 74 77 87 89 82 89 104 101 101 102 92 98 100 83 74 73 80 96 104 98 96 98 86 81 91 92 94 100 98 101 102 100 100 97 97 97 100 103 94 90 91 91 92 76 54 50 50 47 48 49 52 54 47
66 72 87 102 104 104 104 98 96 100 101 98 95 94 93 87 78 71 64 58 54 60 66 55 52 57 53 64 79 71 68 78 90 96 89 86 90 95 94 78 79 97 98 100 101 97 103 94 76 76 79 84 99 103 99 98 96 87 86 100 101 96 99 99 100 102 101 100 99 98 100 102 101 101 100 90 85 96 92 65 47 48 49 52 52 49 49 51
71 72 86 104 105 104 104 99 97 100 100 100 98 95 94 87 82 75 67 63 56 56 69 64 56 63 59 51 56 60 65 79 95 100 96 98 101 97 94 86 84 90 95 101 96 90 96 85 71 76 76 82 99 102 94 87 79 79 92 102 100 100 102 99 100 103 101 100 101 101 102 102 101 100 100 98 93 97 100 74 46 45 44 41 43 42 44 48
72 72 84 102 104 102 103 100 98 100 99 100 100 98 94 90 85 79 74 66 54 52 68 69 59 62 62 50 48 54 66 86 102 104 101 101 102 95 88 92 94 91 95 97 87 80 82 77 72 72 70 83 104 100 90 93 86 76 87 99 101 101 101 100 101 100 99 100 99 101 101 101 105 102 96 99 88 76 85 75 52 47 43 38 37 41 50 52
68 69 82 100 104 100 101 101 99 100 100 100 101 99 95 92 87 86 80 64 55 61 66 67 65 64 62 55 49 51 65 88 100 102 101 101 102 94 83 91 101 101 96 83 78 81 77 76 79 73 68 81 101 101 95 102 94 76 84 100 102 101 99 100 101 97 98 102 101 100 100 99 102 102 98 89 66 55 68 68 54 48 43 39 37 44 55 51
67 67 79 98 104 99 100 101 98 99 100 99 101 101 97 93 93 94 81 61 64 70 61 66 74 64 59 61 54 50 61 84 98 101 102 102 103 96 86 92 101 106 101 84 84 90 79 75 78 75 75 82 91 92 90 92 86 82 95 104 101 101 101 100 101 100 97 99 102 101 100 100 99 101 99 81 56 53 60 53 47 47 44 41 39 46 48 41
71 71 77 90 100 101 101 101 101 100 99 101 104 103 98 98 100 95 79 66 69 67 59 70 77 63 60 66 60 52 55 74 93 99 99 102 107 102 94 95 99 103 104 97 97 98 88 77 73 75 78 82 90 88 82 83 87 96 104 101 100 101 101 101 101 101 99 99 102 100 98 99 100 101 98 82 61 53 50 43 42 46 47 46 43 45 45 44
83 77 74 86 98 104 104 104 105 101 97 101 104 102 102 106 105 93 80 74 70 66 65 69 74 70 67 70 71 62 53 62 80 84 85 95 104 102 98 100 99 95 97 102 103 99 91 80 74 77 75 78 91 87 76 81 94 103 101 98 102 101 100 102 100 99 100 100 100 100 99 99 100 100 100 94 73 53 46 42 40 43 45 48 45 43 47 51
89 78 73 88 100 102 104 106 105 98 94 100 103 102 103 107 107 94 84 78 71 71 71 66 74 79 71 75 85 73 53 55 68 69 70 83 94 91 94 102 100 91 90 99 106 100 89 83 79 78 72 73 86 85 76 86 99 102 99 100 98 93 97 103 101 99 99 99 101 100 99 99 99 99 100 96 75 54 47 42 39 41 41 45 47 44 47 53
87 77 74 91 101 102 104 107 104 95 92 100 104 103 102 106 107 95 84 77 71 77 77 70 77 83 75 80 93 84 60 53 67 74 68 69 78 80 88 102 102 97 94 93 100 102 92 88 86 81 74 68 76 88 85 87 99 102 101 103 98 92 98 103 102 101 98 100 102 100 99 100 100 98 95 91 81 66 54 43 40 40 39 43 45 42 43 48
86 79 80 94 104 106 106 106 100 92 94 102 104 103 101 106 107 95 83 77 78 88 87 73 72 81 80 79 90 92 68 52 68 82 75 65 68 75 87 101 102 100 102 93 91 101 101 98 92 86 80 68 67 83 88 90 100 102 100 100 100 99 100 101 102 102 100 100 101 100 100 101 102 100 96 97 96 84 63 46 41 40 39 40 39 39 37 39
86 87 93 98 103 104 102 101 94 88 95 102 102 102 100 104 105 93 85 81 82 87 83 73 71 79 81 74 84 98 81 60 62 73 82 78 70 73 84 98 102 101 105 98 91 97 102 101 97 91 84 72 65 69 79 94 96 89 96 103 99 101 103 100 99 99 100 101 98 95 97 100 102 100 100 101 101 93 73 53 45 43 41 39 36 37 36 36
89 97 101 99 101 98 90 91 89 88 98 103 102 101 99 103 101 89 82 79 78 80 79 78 78 80 85 79 82 97 91 73 62 66 86 90 77 75 78 84 96 102 104 99 95 98 100 99 99 97 89 79 72 65 70 91 87 75 95 107 98 100 104 100 98 98 100 102 97 92 95 102 101 98 101 101 101 98 81 57 48 48 47 43 39 36 35 37
95 103 102 100 103 96 82 80 86 93 102 104 102 101 101 104 100 86 81 81 83 82 76 76 75 74 83 84 82 94 98 88 78 74 80 86 87 91 88 80 85 96 103 101 98 97 98 100 101 101 96 86 80 73 72 84 84 80 97 106 100 102 102 99 100 98 99 102 99 90 90 99 103 100 101 99 101 102 86 62 51 51 52 49 44 41 37 36
102 102 101 100 103 96 79 73 87 102 106 102 100 101 101 103 100 89 86 90 87 77 77 87 84 76 85 86 82 95 104 98 96 92 87 92 100 104 102 94 85 85 92 96 100 100 96 98 101 102 101 90 81 79 80 81 79 83 97 102 101 101 100 101 100 95 98 103 101 92 84 92 103 102 98 98 102 104 93 73 56 51 56 56 51 46 42 39
101 100 101 102 100 91 73 71 91 107 105 100 100 102 101 102 101 92 91 98 88 77 90 101 88 77 84 85 83 96 105 100 98 100 98 101 106 104 104 104 95 86 84 83 89 97 96 96 99 102 103 97 87 82 82 81 76 76 82 89 98 99 97 102 99 95 101 101 100 100 88 88 100 102 99 101 100 98 95 86 71 60 58 61 61 58 51 45
100 100 101 103 97 82 68 74 96 106 102 101 101 101 101 101 102 98 99 101 89 81 91 92 83 84 83 78 81 91 99 102 101 100 99 101 105 105 103 104 102 97 93 86 80 84 93 97 97 100 101 100 99 93 85 80 77 76 71 74 90 94 92 100 102 99 103 99 100 104 90 83 97 103 101 99 94 93 97 97 89 74 65 68 73 73 65 57
101 100 100 104 96 78 72 82 97 103 103 104 103 101 101 102 105 106 102 96 86 79 78 80 93 102 86 73 81 88 94 103 104 99 100 101 102 103 101 101 102 101 101 98 85 79 88 94 91 92 90 88 97 104 97 82 74 75 72 69 79 83 85 99 104 100 102 101 100 101 90 82 88 96 101 100 94 96 101 102 97 84 79 84 80 77 83 80
101 100 101 104 95 84 83 89 95 101 105 107 105 102 103 103 107 108 99 90 86 81 76 85 104 109 89 74 78 85 93 105 105 99 100 102 102 102 101 100 100 100 101 100 93 90 94 93 87 87 84 80 88 101 101 88 76 72 69 66 69 70 72 89 104 104 102 102 100 100 98 94 88 88 100 104 97 96 99 102 103 88 81 91 86 82 95 97
101 101 101 100 96 94 95 93 92 96 102 106 104 105 107 106 105 102 93 92 95 88 79 82 99 108 96 80 76 82 91 98 102 103 102 101 101 95 91 98 103 98 98 102 101 98 95 90 91 96 91 80 80 88 91 88 86 84 80 71 66 66 67 78 97 105 101 100 103 101 99 102 99 96 102 103 95 95 95 98 104 94 85 95 93 86 90 92
100 99 98 97 98 102 101 96 94 95 99 102 104 108 109 106 105 98 91 97 101 90 76 75 94 110 102 84 79 87 93 90 90 100 106 104 101 88 80 93 101 90 94 109 105 87 79 82 92 102 100 90 85 84 83 84 90 98 100 90 76 76 85 90 97 103 100 96 96 96 95 100 104 103 103 102 100 102 99 94 98 96 93 101 99 88 85 88
100 100 100 99 101 104 101 99 100 98 98 100 103 107 105 105 108 97 87 96 98 86 75 77 95 108 100 87 81 84 96 92 77 83 99 105 102 90 81 91 96 88 94 106 92 70 68 79 91 98 102 101 93 84 81 87 94 99 103 101 91 86 94 100 98 99 99 89 81 87 95 99 101 102 102 103 103 101 96 92 93 92 91 97 100 97 98 100
101 100 99 98 100 102 101 102 102 97 94 96 98 103 103 106 109 95 84 92 93 84 79 80 91 102 102 100 89 81 91 93 75 65 73 89 97 87 79 85 87 86 95 94 80 75 82 87 90 94 100 104 99 89 84 89 97 100 100 102 101 95 95 94 90 94 100 91 81 91 102 101 100 101 101 102 102 99 97 97 98 99 95 95 97 98 100 102
96 96 96 95 96 100 102 102 101 93 88 89 90 93 96 101 106 99 92 93 90 85 82 80 85 89 94 97 85 74 83 94 91 74 58 74 103 101 85 76 68 73 92 98 93 97 102 98 93 94 98 102 104 99 91 88 92 100 103 102 101 101 101 99 95 97 101 97 93 99 104 103 102 100 99 102 101 95 94 97 100 102 98 94 98 101 101 102
80 83 87 89 90 93 95 97 97 88 82 80 80 82 88 96 103 103 100 96 88 84 80 76 74 77 89 101 91 80 87 97 103 90 64 66 97 109 99 86 76 77 92 103 104 102 105 106 101 99 100 101 102 102 99 95 90 91 99 103 101 100 101 101 100 98 99 102 102 97 94 97 100 100 102 105 103 96 90 87 93 100 97 91 96 101 99 99
65 67 72 78 79 80 83 88 88 81 76 74 74 76 80 88 99 102 99 92 84 82 77 67 69 85 100 104 90 80 89 98 99 95 80 68 81 102 108 98 93 94 93 97 100 96 99 106 103 100 100 100 101 102 103 98 85 80 94 105 101 97 97 99 101 99 99 102 99 93 92 90 86 89 94 95 98 103 95 81 80 92 100 98 99 104 101 98
Wind_Speed
35 36 37 37 38 38 39 39 39 39 37 35 35 31 24 22 22 21 20 18 18 16 15 14 13 14 15 15 16 16 16 16 16 16 16 17 17 18 18 18 19 20 20 21 21 20 20 21 21 22 23 24 25 25 24 24 25 26 27 28 27 27 26 25 22 21 22 20 22 21 18 20 21 24 30 32 35 38 35 33 33 32 32 33 34 32 31 33
34 35 36 37 37 38 39 39 39 38 38 35 35 33 26 22 22 21 20 19 18 17 15 13 12 12 13 14 15 15 15 15 15 14 15 15 15 16 16 17 17 18 18 18 18 19 19 19 19 19 19 20 20 19 19 18 19 21 22 22 21 20 18 16 14 13 14 15 19 19 15 20 25 28 31 32 35 35 29 28 30 29 28 30 31 31 32 33
34 35 36 36 37 37 38 39 39 38 38 36 34 34 28 22 21 21 20 19 19 18 14 12 11 11 11 12 13 14 14 14 14 13 13 14 14 15 15 15 15 16 16 16 16 16 16 15 14 15 15 16 16 14 13 13 14 16 18 18 17 15 13 11 10 9 8 10 18 18 13 15 21 24 26 27 28 28 26 28 29 27 26 27 29 31 32 32
34 35 35 36 36 37 37 38 39 37 37 36 34 33 30 23 21 21 20 19 19 18 14 11 10 10 11 11 12 13 13 13 12 12 12 13 13 13 13 13 14 14 14 14 14 12 12 11 10 10 12 13 13 10 8 11 12 13 16 16 15 13 12 12 10 7 3 7 10 9 9 12 15 17 17 18 23 24 25 28 28 25 22 23 26 29 30 29
34 34 35 35 36 36 36 37 38 38 37 37 34 33 31 25 21 20 20 19 19 18 14 11 10 10 11 11 11 11 11 11 11 11 11 11 12 12 12 12 12 12 12 11 10 8 6 6 7 6 7 8 8 6 5 9 11 12 15 15 15 14 14 12 9 6 1 5 8 9 12 13 10 11 13 16 21 21 21 24 23 21 18 18 21 23 24 24
34 34 35 35 35 36 36 36 37 38 37 37 35 32 31 27 21 20 19 18 18 17 14 11 10 10 11 11 11 11 10 10 9 9 10 10 10 10 10 9 9 9 8 7 5 3 3 4 3 1 4 5 6 5 5 9 11 12 14 15 16 16 15 11 9 8 7 9 12 12 12 12 9 9 10 13 15 15 15 17 17 17 16 16 18 19 20 20
34 34 34 35 35 35 35 35 36 37 37 36 35 32 31 29 23 19 19 17 17 17 14 11 10 9 10 11 11 10 9 10 9 9 9 9 9 7 7 6 6 5 3 4 4 5 4 3 2 6 5 5 6 5 5 8 10 11 12 13 16 16 16 15 13 12 13 15 15 13 12 12 10 8 8 8 8 10 11 12 12 14 16 16 17 18 18 19
34 34 34 34 35 35 35 35 35 36 37 36 35 33 30 29 24 19 18 17 16 16 14 11 9 8 9 10 9 8 8 9 8 8 8 7 7 5 4 3 3 3 5 6 7 8 6 5 6 7 4 3 5 7 8 8 8 8 8 8 11 14 16 17 16 15 16 17 17 15 13 12 12 12 11 9 9 10 11 12 11 12 13 14 17 18 18 18
34 34 34 34 34 35 35 34 34 35 36 36 35 34 30 29 25 19 17 17 16 15 13 10 8 7 8 8 6 7 8 7 7 7 7 6 5 4 3 4 4 8 9 6 7 9 8 7 7 7 6 5 6 8 8 5 4 5 6 4 7 11 14 14 14 14 15 17 17 16 14 13 15 15 13 10 10 11 13 13 11 13 15 14 14 15 16 16
34 34 34 34 34 34 34 34 33 33 35 36 35 34 31 28 26 20 17 16 15 15 13 10 7 5 5 4 4 5 6 4 5 7 6 5 4 4 5 6 8 12 11 7 8 11 10 9 8 8 8 6 6 6 6 4 3 5 5 3 6 10 11 12 12 11 12 14 15 14 15 16 17 18 17 14 11 12 14 15 14 14 14 12 11 11 12 12
34 34 34 34 34 34 34 34 33 32 33 35 35 34 32 28 26 21 17 16 15 14 13 9 6 4 3 1 2 4 3 3 4 5 4 3 3 4 6 8 11 12 11 11 13 13 14 13 10 10 10 8 8 8 9 8 7 8 8 7 7 10 12 13 13 11 10 11 11 11 12 13 15 17 17 16 13 11 12 15 15 13 12 11 10 8 6 4
34 33 34 33 34 34 34 33 33 32 32 34 34 34 33 29 26 23 17 15 15 14 12 8 3 3 3 2 1 3 4 4 3 4 1 1 3 6 8 11 12 12 11 13 16 15 18 17 12 11 12 12 13 14 13 13 12 11 11 11 11 11 13 14 13 13 13 12 12 11 9 8 9 12 13 13 14 11 11 13 12 11 11 10 8 4 3 3
35 34 34 33 34 34 34 33 32 32 31 32 33 34 33 29 26 23 18 15 14 13 11 6 1 3 3 2 1 3 4 2 2 2 1 3 5 8 10 13 14 14 14 16 18 20 20 18 14 12 14 17 17 16 15 14 12 11 11 12 13 12 14 14 12 14 14 12 11 9 6 5 5 7 7 7 9 8 7 7 7 9 8 5 6 4 3 3
36 34 34 33 34 33 33 33 32 32 31 31 32 33 34 30 26 24 19 15 13 13 11 5 1 4 4 2 2 2 4 3 2 1 3 5 8 11 13 15 18 18 19 20 21 21 21 19 16 13 16 19 16 14 15 14 10 9 10 12 13 13 13 13 12 12 11 8 7 6 5 5 6 6 5 4 4 4 5 5 6 8 6 4 4 4 4 4
37 35 34 33 34 33 33 33 32 31 30 30 31 32 33 31 26 24 20 15 12 12 9 4 2 5 5 2 2 3 6 6 4 3 5 7 10 13 15 17 20 21 21 21 22 21 21 21 19 17 18 16 13 13 14 13 10 8 9 11 12 12 12 12 12 11 10 8 7 6 7 7 7 7 6 5 4 5 6 7 7 7 6 5 3 4 5 6
37 35 34 33 34 33 33 33 32 31 30 30 30 31 32 31 27 23 21 17 12 11 8 3 3 5 5 4 1 4 7 6 6 6 7 9 11 16 17 18 21 22 22 23 23 22 23 24 22 19 16 11 11 12 11 11 10 7 8 10 11 10 12 12 12 11 9 7 7 7 8 6 5 5 6 6 6 6 7 7 8 7 7 7 5 5 6 7
37 35 35 34 34 34 33 32 32 31 30 30 29 30 31 31 28 23 21 18 12 10 9 4 4 6 6 6 4 5 8 7 8 8 9 11 13 18 20 20 22 23 23 24 23 22 24 24 19 15 12 8 9 10 9 10 10 9 9 9 10 10 11 11 10 10 9 8 9 10 10 9 7 4 2 3 4 5 5 5 5 5 6 9 8 7 9 10
36 35 35 34 34 34 34 33 32 31 30 29 29 29 29 30 29 23 21 19 13 10 9 5 5 8 7 6 6 7 8 8 9 10 10 13 15 20 23 22 23 24 24 26 24 22 22 21 15 12 11 9 9 10 10 11 11 10 9 10 12 12 11 11 10 11 11 12 13 14 15 14 13 11 9 7 3 3 3 3 4 5 7 8 9 9 11 12
38 36 35 35 34 34 34 33 32 31 30 29 28 28 28 29 29 24 21 18 14 10 8 6 5 9 8 7 9 10 9 9 11 11 11 15 18 22 26 24 23 23 22 24 24 23 21 17 13 11 10 10 10 10 10 11 12 10 9 10 12 12 12 12 11 11 13 14 15 16 16 17 17 15 14 12 7 3 2 3 4 7 7 8 9 9 11 12
39 37 36 35 35 35 34 33 32 31 30 29 28 27 27 28 28 25 21 19 16 11 9 8 5 9 9 9 11 11 10 10 11 13 13 15 19 25 27 26 22 20 19 22 23 21 18 15 14 12 9 9 10 9 10 12 12 9 8 10 11 12 12 11 11 11 12 12 13 16 18 19 20 19 17 14 9 7 5 4 6 7 8 9 9 9 11 13
40 38 37 36 35 35 35 34 33 32 30 29 28 27 26 27 27 25 22 19 17 13 9 8 7 9 10 9 12 14 13 11 12 14 16 17 20 25 27 26 21 18 18 21 21 18 15 15 15 15 12 10 10 10 12 14 13 10 9 10 10 10 10 10 10 11 12 11 11 16 20 21 22 22 20 16 11 9 7 5 6 7 9 10 10 9 11 13
40 39 38 37 36 35 35 34 33 32 31 29 28 27 25 25 26 25 22 20 18 15 11 8 7 10 10 9 13 16 16 14 13 14 18 20 21 22 25 24 21 19 18 18 19 17 15 16 15 14 14 13 12 13 16 16 14 11 10 10 9 9 10 11 12 12 13 12 12 15 18 19 21 21 20 17 11 8 7 6 4 5 7 9 10 9 10 13
39 39 38 38 37 35 36 35 34 32 31 29 28 27 25 24 25 25 23 20 18 16 12 8 7 9 10 10 13 17 18 16 14 14 18 21 21 20 22 23 22 20 17 17 19 17 15 16 15 13 14 16 17 18 18 16 13 10 9 10 9 10 13 15 15 14 14 15 15 16 17 17 18 18 17 16 13 9 8 7 4 3 5 6 8 8 11 12
39 39 39 39 37 36 37 36 34 33 32 30 28 27 25 24 24 24 23 20 18 17 14 9 7 9 11 11 13 17 19 20 17 15 17 20 21 21 21 22 23 22 19 18 17 16 15 16 16 14 15 19 20 20 17 14 13 11 9 8 9 12 13 14 14 12 13 13 15 16 18 17 17 16 16 17 16 13 10 9 7 4 4 5 8 9 10 12
41 39 40 41 39 38 38 36 34 33 33 31 28 27 25 24 24 23 23 21 19 18 15 12 9 9 10 12 14 16 18 22 19 16 18 20 22 24 22 21 24 23 21 19 15 16 17 15 16 18 20 21 20 17 13 13 13 11 9 7 8 12 12 12 10 9 10 10 12 14 15 17 17 18 17 18 19 16 11 10 8 5 3 5 7 10 10 11
42 40 41 42 41 39 38 37 34 33 34 32 29 27 25 24 23 23 23 21 19 18 16 14 11 9 9 14 17 16 16 22 22 18 19 20 22 23 20 20 24 23 22 20 15 16 17 15 17 21 22 21 20 15 11 11 12 12 11 10 10 10 11 10 8 8 8 8 9 11 13 15 16 18 16 17 18 17 12 8 6 5 4 5 7 10 9 10
42 40 40 41 40 39 38 37 34 33 34 33 30 27 26 25 23 22 22 20 19 19 17 16 13 10 9 16 21 18 16 21 24 21 20 19 20 20 17 19 24 24 22 20 17 17 16 15 20 23 23 22 20 15 12 11 11 12 13 14 11 8 9 7 5 9 8 6 7 9 13 14 15 16 14 14 15 15 14 8 4 3 4 4 5 9 8 8
43 40 39 39 39 38 37 36 34 34 34 33 31 28 26 25 23 22 22 20 20 19 18 17 14 11 11 16 21 20 17 20 23 22 21 19 19 19 18 19 22 21 19 20 21 20 17 18 23 24 24 23 19 14 14 14 12 13 15 15 10 7 8 6 6 8 6 6 7 8 10 11 12 12 11 12 10 12 14 10 3 3 4 4 5 8 8 7
44 40 37 37 37 37 36 35 34 34 34 34 32 29 26 25 23 22 22 21 21 20 18 18 15 14 14 15 18 19 18 20 20 21 22 20 19 20 21 22 21 18 17 20 23 21 17 21 26 24 23 21 18 16 15 14 12 14 16 14 9 8 8 6 3 1 1 4 5 6 6 7 10 10 9 10 8 8 11 9 4 3 3 4 6 8 8 8
42 39 37 36 36 35 35 35 34 34 34 34 33 30 27 24 23 22 23 23 23 20 19 20 17 17 17 14 15 17 19 22 20 20 23 23 21 22 23 23 21 19 19 21 21 19 19 23 25 23 22 20 18 18 17 13 11 13 16 15 12 11 9 6 5 5 2 2 3 6 7 7 9 12 11 9 9 9 9 7 5 3 0 3 6 8 9 9
40 38 38 36 34 34 35 36 35 34 35 35 34 31 27 25 23 22 25 25 22 19 21 20 18 19 19 16 14 15 19 26 25 21 24 27 27 26 24 22 22 20 20 22 20 18 19 23 23 21 21 20 19 21 20 15 13 14 15 16 15 13 11 8 8 6 4 1 3 5 7 7 9 11 11 11 11 9 7 6 4 1 1 4 5 7 9 10
42 39 39 36 33 34 36 37 36 35 36 36 34 32 29 25 23 24 27 26 22 21 21 19 19 21 21 18 16 15 18 27 30 27 28 30 32 30 25 23 23 21 21 22 20 17 19 23 23 22 22 20 20 23 20 17 16 15 15 15 13 11 11 10 7 4 4 3 2 4 7 9 8 9 11 11 11 9 7 6 3 1 2 3 5 7 9 11
46 41 40 37 34 35 37 38 37 37 37 36 34 33 29 25 24 26 28 26 24 23 20 19 22 21 21 21 18 15 17 24 32 33 33 33 35 34 29 26 25 23 22 23 22 20 20 24 23 22 22 21 21 22 20 19 18 16 16 14 10 11 12 11 8 5 4 5 4 4 7 10 9 9 12 11 10 10 10 8 5 3 3 4 6 7 8 10
48 43 41 38 35 36 38 38 39 38 37 36 34 32 29 27 27 28 28 26 25 24 21 21 22 20 21 22 18 16 17 21 28 33 33 34 36 36 33 29 27 25 24 23 24 23 21 23 24 23 23 22 21 21 21 21 20 18 17 14 10 12 12 11 11 9 8 7 6 5 7 10 9 9 12 13 12 11 10 9 6 4 4 5 6 7 9 10
48 44 42 39 37 38 39 40 40 39 37 36 34 32 30 30 31 30 28 26 25 25 23 21 21 20 21 22 20 19 18 18 23 28 31 34 36 37 35 31 28 27 26 24 23 23 23 22 23 23 23 23 22 23 23 22 21 20 19 15 12 12 10 10 12 11 9 8 7 6 7 8 10 10 13 15 14 12 10 9 6 5 5 6 6 7 9 12
47 45 43 40 38 39 41 41 42 40 38 36 33 32 32 33 34 31 27 25 25 25 24 21 21 20 20 22 23 22 19 17 19 23 27 31 34 36 35 32 28 29 30 28 25 24 23 22 22 23 24 24 25 24 24 24 22 21 20 16 13 13 11 11 13 11 9 10 10 8 6 6 10 12 12 14 15 12 11 10 7 5 5 7 7 8 10 12
46 45 43 41 40 41 42 43 43 41 38 35 33 34 35 36 36 32 27 25 24 25 25 23 22 22 21 24 25 24 22 18 18 21 24 28 31 34 35 33 31 30 31 32 29 26 24 23 24 25 24 25 26 27 26 25 23 23 22 18 16 16 16 15 14 13 12 12 11 9 7 7 10 13 11 12 14 12 12 11 8 6 5 6 7 8 10 12
45 44 42 41 41 42 43 44 43 42 38 35 34 37 37 37 37 33 27 25 25 27 27 24 23 23 23 24 26 26 23 19 19 20 21 25 29 33 36 36 33 31 32 34 33 30 27 25 26 26 25 25 26 28 29 28 27 27 24 20 19 20 20 19 17 17 16 14 12 11 10 9 11 12 12 13 15 15 13 12 9 7 6 6 7 8 10 12
44 44 42 42 43 44 44 44 45 42 38 36 37 39 39 39 38 33 28 26 27 28 28 26 25 24 24 24 26 27 23 20 20 20 20 23 26 30 35 37 36 34 33 36 36 34 31 27 25 25 26 26 25 27 29 29 29 29 26 23 22 21 21 22 21 20 17 14 13 12 12 11 12 12 10 12 16 17 14 11 10 7 6 6 7 8 10 12
44 44 44 44 45 46 45 44 45 42 39 39 40 40 41 40 39 34 28 26 28 29 29 29 27 26 24 24 26 27 22 19 19 19 20 21 22 28 33 35 37 37 35 36 38 37 34 30 26 25 26 27 26 26 28 30 30 30 28 26 25 23 22 22 21 19 14 12 13 14 14 13 12 11 10 11 14 16 15 12 10 8 7 7 7 8 10 12
45 46 47 47 48 48 46 44 44 43 41 40 41 41 42 41 39 34 28 27 30 30 29 30 29 26 26 25 25 25 23 20 19 19 19 21 24 27 30 31 36 39 38 37 39 39 37 34 30 27 26 26 27 27 27 29 32 31 28 28 27 25 22 19 18 17 14 12 12 14 14 14 11 10 12 13 13 14 16 14 11 9 7 7 7 8 9 12
47 49 50 50 50 50 47 45 45 44 42 41 42 43 43 42 39 35 30 31 32 29 28 32 31 28 28 28 26 27 26 23 22 21 21 24 27 28 29 30 33 37 38 39 40 41 40 37 33 31 28 26 25 27 28 28 30 32 30 28 27 26 23 19 17 18 17 16 15 14 14 14 13 12 13 14 13 13 14 13 11 9 8 7 8 9 9 11
50 52 53 53 52 51 48 46 46 44 43 43 44 44 44 42 40 36 33 33 32 29 31 34 33 30 32 31 28 30 32 30 28 26 24 27 31 31 30 30 29 30 34 38 40 40 40 40 38 35 33 28 24 24 27 29 29 30 31 30 27 27 26 22 20 21 20 19 18 17 16 15 15 15 14 14 13 11 10 12 12 10 9 8 8 9 10 11
53 54 56 56 55 52 49 48 47 46 45 45 44 44 43 42 40 38 37 36 33 31 32 34 34 34 35 33 30 30 34 36 35 33 30 32 34 32 29 27 26 27 30 33 36 37 39 41 41 40 37 33 28 25 26 29 31 30 31 31 29 28 28 24 22 24 23 19 18 17 17 16 16 16 14 14 14 12 11 14 14 12 10 9 9 10 11 12
56 56 58 58 57 55 52 50 49 48 47 46 45 44 44 43 42 41 39 36 34 32 32 34 37 37 37 35 32 31 36 42 41 37 36 36 36 35 32 29 29 31 29 29 31 35 40 42 40 39 39 37 34 31 27 27 29 29 29 30 30 29 29 27 24 25 24 22 20 18 16 16 17 17 15 15 16 16 15 14 13 12 11 11 10 11 12 13
59 59 60 60 59 57 54 53 52 50 49 48 45 45 46 45 44 44 39 35 36 36 34 35 38 39 38 37 35 33 37 44 45 41 40 41 41 40 36 32 33 34 29 28 32 37 40 40 38 35 35 37 37 35 32 28 25 25 26 27 28 27 28 29 28 26 25 26 25 22 19 19 19 18 16 16 16 17 17 15 13 13 13 12 13 13 12 12
61 61 62 61 60 58 56 55 53 52 51 49 47 48 49 47 46 45 39 37 41 40 36 36 38 40 41 39 37 36 36 42 48 46 43 42 44 43 38 35 37 35 29 30 34 37 38 38 37 32 30 33 37 37 35 31 26 24 24 24 25 25 25 28 30 28 27 28 28 24 21 20 21 20 19 17 16 18 18 16 14 13 12 13 15 14 12 10
62 62 62 61 60 59 57 55 54 53 52 51 49 49 50 48 48 48 42 40 44 42 36 36 39 42 43 41 40 39 39 41 46 49 49 46 45 44 39 37 38 35 33 34 32 31 33 35 36 34 31 31 34 36 35 33 30 28 25 24 24 24 25 28 31 30 28 28 28 25 22 21 21 21 20 20 20 20 20 20 17 15 13 14 16 16 14 13
62 62 61 60 59 58 57 56 55 54 53 52 51 51 51 49 49 49 43 43 45 42 38 38 41 44 46 44 42 42 42 41 42 46 51 49 45 42 40 39 37 33 32 34 31 25 26 31 34 35 31 29 32 36 37 35 33 30 27 25 24 23 24 27 31 30 27 26 26 24 23 23 22 22 22 22 22 20 20 21 20 17 15 14 16 18 17 17
61 61 61 60 58 57 57 56 56 55 53 53 52 51 51 51 50 48 45 46 46 43 41 43 45 46 47 46 45 43 41 41 40 42 46 47 44 43 42 41 37 31 28 30 29 25 26 31 35 36 32 28 29 34 37 38 36 32 29 28 27 25 24 25 29 30 26 25 25 25 27 27 25 25 25 23 23 22 21 21 21 20 18 17 17 19 20 20
60 61 61 60 59 58 57 57 57 56 55 54 53 52 52 51 50 49 48 49 48 46 44 46 47 47 47 48 47 43 41 41 41 40 40 44 47 46 42 40 38 35 33 33 32 30 30 33 37 37 33 29 30 33 35 38 39 35 31 31 30 27 26 27 28 28 28 29 29 28 29 29 27 27 26 24 24 25 24 23 24 23 22 21 20 21 21 22
58 59 60 60 60 59 58 58 59 58 56 54 54 53 53 52 51 51 51 51 50 48 47 48 48 49 50 50 48 43 41 41 42 40 39 43 49 49 43 41 39 36 35 36 35 34 32 33 36 36 32 30 32 33 35 37 38 36 34 32 31 28 28 28 28 29 31 32 29 26 26 27 28 28 27 26 27 27 25 25 27 27 25 24 25 24 24 23
Wind_Direction
334 336 338 339 340 342 344 345 345 347 347 346 347 344 336 332 334 334 333 333 331 326 322 318 316 313 309 305 302 298 293 288 284 280 277 275 273 271 270 269 268 268 268 269 270 271 272 273 275 277 277 278 279 279 280 282 286 287 287 288 293 296 297 295 290 282 273 264 255 242 227 220 219 226 232 233 234 235 237 238 238 238 241 243 242 244 245 247
333 334 336 338 339 341 343 344 345 346 347 345 346 346 340 334 335 336 336 337 334 328 321 319 316 312 308 303 301 297 292 287 283 280 276 275 273 270 270 270 269 269 270 271 273 274 274 275 278 279 279 280 280 282 289 294 294 292 293 299 306 311 309 302 293 281 265 252 238 221 210 219 219 221 226 229 231 232 230 229 231 231 232 234 238 245 248 250
333 333 335 336 338 339 342 344 345 345 347 345 345 346 343 336 336 338 338 340 338 332 324 321 321 317 314 308 302 297 292 288 284 281 278 275 273 271 271 271 271 271 272 273 274 275 276 278 280 278 278 279 280 289 300 301 300 305 314 321 329 334 333 329 320 302 274 251 239 223 209 218 218 219 226 230 232 229 222 221 225 228 230 231 235 242 248 251
331 332 333 335 336 338 340 343 345 345 346 346 344 346 346 338 336 339 340 342 341 336 329 326 327 326 325 318 308 301 295 289 285 281 277 275 274 273 273 273 273 274 274 273 273 275 278 278 274 274 278 283 293 307 314 311 319 337 341 342 348 357 7 9 359 336 275 223 229 217 180 188 204 211 219 225 227 226 221 221 226 231 234 235 239 245 251 255
329 331 332 333 335 336 338 341 344 345 345 346 344 344 347 342 336 339 341 343 344 339 333 330 332 334 332 325 315 305 296 287 283 278 276 275 274 275 274 274 273 272 273 272 271 275 277 267 260 275 293 301 321 344 345 336 353 2 353 358 10 25 42 39 32 35 40 163 141 135 149 161 179 197 210 217 222 226 221 220 226 229 231 237 244 247 250 254
326 329 331 332 333 334 337 339 342 345 345 346 345 343 346 344 336 337 342 344 345 340 334 332 335 340 335 328 320 309 298 287 281 277 274 272 270 270 269 268 267 266 265 261 252 237 240 244 250 41 21 358 17 38 18 3 14 10 4 25 40 50 67 67 63 75 77 93 107 120 140 147 159 187 204 210 217 220 212 214 220 220 219 229 240 243 246 253
322 326 328 330 331 332 335 337 340 344 345 345 345 343 344 346 339 336 341 344 347 342 334 331 335 339 334 328 321 313 300 287 279 272 268 263 259 256 255 253 252 250 221 201 171 157 177 184 119 98 72 25 44 57 38 26 23 15 17 43 58 65 80 87 84 86 85 87 95 107 128 145 154 159 158 165 181 190 187 189 199 211 217 227 237 243 249 258
318 322 325 328 329 330 332 335 337 341 344 344 344 343 342 345 342 335 339 343 347 345 335 329 331 336 335 329 319 306 296 287 274 265 258 250 244 235 227 210 204 168 147 156 151 147 149 138 123 114 98 47 62 70 62 46 30 20 16 41 67 75 90 99 95 92 95 99 100 105 124 144 150 142 133 137 151 163 172 174 181 202 216 227 238 244 251 263
315 318 322 325 327 329 330 333 336 338 343 344 343 343 341 343 343 336 336 342 345 345 337 327 328 339 346 334 313 302 302 292 269 260 248 236 230 206 163 141 141 132 137 155 153 145 134 120 117 115 106 81 67 66 71 56 23 6 356 25 87 97 106 111 107 104 110 112 106 109 128 144 148 140 132 134 151 167 176 180 187 204 215 228 242 249 256 263
312 315 319 322 325 327 328 331 334 336 340 343 343 343 341 341 343 338 334 339 342 344 339 329 331 356 8 341 318 324 317 279 254 254 240 228 212 169 133 126 134 137 145 149 135 139 128 107 100 104 101 89 73 64 74 64 31 29 21 46 114 118 123 122 113 112 122 123 115 116 132 149 152 147 144 144 156 174 180 186 195 209 220 233 248 260 266 265
309 312 315 319 322 324 326 328 331 334 336 340 342 342 341 339 342 339 332 336 341 342 339 331 340 28 64 42 354 340 292 216 234 247 236 223 173 140 128 128 137 145 150 134 126 131 116 98 89 91 90 84 77 65 63 61 59 64 66 78 109 128 138 133 122 120 132 144 143 131 136 155 162 162 164 164 170 179 191 200 205 214 231 246 251 259 263 255
306 310 313 316 319 321 324 326 329 332 334 337 340 341 341 338 339 339 332 332 339 341 339 334 357 79 127 140 10 307 248 206 224 250 245 132 126 122 127 135 141 147 147 135 130 122 107 98 89 87 84 77 72 65 64 68 66 67 73 81 95 119 141 139 131 131 140 154 155 144 148 172 185 185 180 185 193 197 212 220 217 220 233 244 234 231 231 187
303 307 310 313 316 318 321 323 326 330 331 334 338 339 340 338 337 338 332 329 335 341 338 335 47 128 143 125 326 269 233 204 226 256 85 101 110 116 132 140 140 139 136 131 127 120 115 109 95 87 85 82 79 72 70 70 64 67 76 82 90 106 128 135 133 134 140 153 155 149 163 182 183 179 175 193 202 197 209 212 205 213 224 219 180 189 233 183
301 304 308 310 313 315 318 321 323 327 329 331 335 337 339 338 335 335 332 326 332 341 336 336 125 162 150 92 339 238 189 155 146 151 111 110 112 119 132 136 134 130 128 126 123 120 120 115 103 98 91 89 90 82 78 73 66 79 90 91 96 102 111 116 117 119 119 129 145 144 141 136 127 135 140 159 166 154 176 182 184 202 209 200 169 177 197 158
299 301 305 307 310 312 315 318 320 323 327 328 331 334 337 338 334 332 332 325 326 339 335 328 186 177 147 95 331 240 188 149 126 131 117 119 121 122 128 133 131 128 125 122 118 115 112 108 104 101 93 92 96 89 87 87 81 88 100 102 108 108 101 98 99 100 96 97 109 111 111 121 132 145 159 170 169 155 176 191 186 188 179 173 169 162 160 142
297 298 301 304 306 309 312 315 317 320 323 325 328 331 334 337 334 329 329 323 321 335 333 310 213 186 153 151 241 233 198 158 129 132 123 126 128 124 128 132 129 126 124 117 111 108 106 102 96 93 90 94 105 99 89 92 94 94 103 111 114 111 101 96 94 95 96 94 94 93 91 96 122 154 175 180 185 180 190 195 181 180 166 156 164 156 142 129
295 295 298 301 303 305 308 312 314 317 320 322 325 328 330 335 335 328 327 323 316 328 327 298 202 195 184 171 193 210 196 173 143 137 131 134 133 128 131 133 127 125 123 118 114 113 110 100 90 89 96 105 116 113 97 93 99 94 96 109 111 109 105 99 97 98 103 99 88 78 66 58 61 72 99 139 168 183 197 198 179 177 163 155 160 154 140 126
291 293 296 298 299 302 305 308 311 314 316 319 322 325 327 331 334 329 324 321 314 321 321 295 194 202 206 176 189 202 190 174 149 140 138 139 136 132 132 130 125 123 121 119 120 122 115 106 104 103 110 123 119 108 101 99 104 100 97 103 103 102 100 98 99 98 94 84 76 66 55 46 41 38 35 41 75 152 186 194 168 152 148 144 142 140 135 127
287 291 293 294 296 297 301 304 308 310 313 316 318 321 324 327 333 330 321 318 313 310 314 300 215 207 215 192 195 200 188 173 150 141 143 141 138 135 132 128 124 123 123 124 127 128 122 121 129 122 116 130 125 111 110 105 103 103 99 99 99 99 97 96 93 88 83 76 71 64 54 48 44 40 35 37 52 67 119 141 120 118 124 128 130 127 124 122
284 287 290 291 292 293 297 300 304 307 309 312 314 317 320 323 331 331 320 315 309 300 305 303 253 214 217 205 194 191 183 177 158 146 146 145 142 138 134 128 123 124 127 130 130 130 133 140 140 136 138 141 139 138 134 119 108 105 102 103 103 100 98 95 85 75 69 64 66 61 52 46 42 40 38 40 44 30 41 96 92 96 106 113 120 118 119 122
282 283 285 287 289 289 292 296 300 303 305 308 311 313 316 320 327 330 320 312 307 295 289 296 267 224 221 209 191 184 176 179 174 156 150 149 145 143 139 130 127 132 134 134 131 131 146 152 145 152 160 155 158 154 136 123 114 112 109 105 102 98 97 93 78 62 51 49 59 52 42 38 36 35 34 38 42 20 22 60 64 87 109 113 110 108 114 119
280 278 281 283 285 286 289 293 296 300 302 304 307 309 312 316 322 327 321 310 305 294 280 286 272 238 230 216 194 184 178 184 186 167 157 152 149 150 145 137 137 142 145 148 145 145 156 161 159 163 164 165 170 152 131 119 111 113 113 104 100 96 92 84 71 53 38 39 49 39 30 31 31 29 30 35 41 22 21 41 42 87 116 119 112 111 117 116
279 274 276 280 282 284 286 289 293 296 299 301 303 305 307 311 317 324 321 309 303 296 277 270 272 250 235 219 197 185 182 189 192 177 165 158 156 157 151 147 148 147 153 162 161 161 163 165 169 168 165 169 162 140 127 118 113 119 122 114 106 96 86 76 67 51 38 37 38 28 23 26 23 23 31 37 43 35 34 45 42 84 111 126 124 126 126 122
279 272 272 276 279 281 284 286 290 293 296 297 299 301 303 307 312 320 321 310 300 297 281 263 265 253 236 215 199 193 190 193 196 186 174 165 160 158 155 156 154 155 165 172 174 177 168 164 173 172 165 162 150 136 128 126 127 128 128 124 111 102 91 74 63 49 44 42 37 26 19 19 14 14 22 28 36 37 36 45 46 60 99 128 132 135 136 135
278 271 268 271 275 279 281 283 286 290 293 294 295 298 299 302 308 315 319 311 298 294 283 263 252 249 235 203 201 210 198 193 198 194 183 172 162 161 164 165 162 164 172 175 184 184 170 170 179 170 162 157 146 134 131 134 138 141 141 132 115 109 91 71 65 59 55 46 38 28 17 13 7 5 9 9 18 26 29 40 45 50 100 126 129 135 148 156
278 273 268 267 271 275 277 279 283 287 289 291 292 294 295 297 303 311 316 311 297 291 285 268 250 247 232 195 203 220 203 195 198 195 191 182 171 171 176 177 172 170 173 177 189 186 176 181 181 170 162 154 141 133 133 134 133 142 143 128 117 107 81 67 61 57 54 42 39 29 14 12 4 1 6 1 2 11 17 34 50 61 113 134 140 144 155 166
278 275 269 266 268 271 273 275 279 283 286 288 289 290 291 293 298 307 311 309 296 286 282 270 250 241 224 199 207 221 210 201 198 192 192 190 183 182 186 184 176 172 179 186 189 188 191 191 180 171 163 149 138 139 146 143 131 131 133 123 115 97 85 85 48 39 38 24 29 24 16 10 359 359 7 360 351 357 6 19 52 85 116 128 151 154 156 164
278 275 269 266 266 267 270 272 276 279 283 285 286 286 288 289 294 302 306 303 294 284 280 274 257 239 228 214 216 220 210 199 195 193 193 192 192 193 190 183 178 179 192 196 191 191 198 194 180 172 165 153 147 155 160 155 141 134 135 128 121 111 96 76 26 32 32 7 1 9 21 11 356 356 359 357 349 346 352 356 18 101 115 122 154 154 155 169
277 272 265 263 263 264 267 270 273 276 280 283 283 283 284 286 290 296 299 296 292 285 279 274 259 238 232 229 226 222 206 191 191 199 198 189 192 202 195 186 188 193 198 199 198 196 193 189 181 173 170 160 155 161 161 156 149 143 142 132 130 139 113 77 36 21 3 6 345 332 355 353 339 336 336 347 350 329 329 339 5 60 104 130 146 149 162 178
272 267 260 259 260 263 267 269 271 273 277 280 281 280 281 282 285 291 291 289 293 289 276 272 265 247 237 232 231 226 207 191 193 205 202 187 189 204 200 192 195 196 196 198 197 193 187 185 182 175 172 165 159 161 158 161 165 152 143 135 140 148 131 135 181 194 211 1 320 309 327 321 312 320 323 328 329 313 306 327 3 10 107 144 142 150 165 176
268 262 256 254 257 263 268 269 269 271 274 277 278 277 277 277 281 284 283 287 296 290 275 273 270 255 242 232 230 227 209 195 196 208 207 193 194 205 202 196 195 194 199 198 192 191 189 188 186 180 176 172 168 166 164 170 171 155 145 140 145 150 147 167 196 195 192 217 314 320 317 296 296 316 317 310 311 304 296 317 347 341 202 156 150 160 173 181
268 260 252 251 255 262 267 268 268 269 272 274 275 274 274 274 275 275 278 287 291 283 276 272 265 256 246 236 229 227 215 200 196 207 212 202 201 206 204 201 199 199 202 199 197 203 200 195 194 188 182 178 173 172 174 173 163 157 158 152 153 164 163 167 186 202 195 201 305 320 293 278 288 309 307 304 309 306 304 320 335 301 256 181 167 176 184 186
268 260 250 248 253 260 265 266 266 267 268 271 272 271 271 272 269 269 275 283 284 282 281 269 262 261 251 241 233 229 223 208 202 208 213 209 207 207 206 204 204 204 202 200 206 211 205 201 199 195 190 182 176 178 179 171 162 161 163 157 163 179 170 161 171 200 205 213 261 285 272 273 287 305 305 308 317 312 303 307 314 286 248 210 191 193 192 188
264 258 249 247 252 259 262 264 265 265 265 269 270 268 269 267 264 265 271 277 280 283 279 267 264 264 254 245 237 232 229 219 214 213 214 212 211 209 207 206 209 209 203 202 210 213 208 205 204 202 198 188 182 183 180 172 168 169 166 164 184 189 175 169 182 202 204 205 246 268 257 267 280 297 303 305 313 312 296 291 297 275 232 216 209 204 201 196
259 254 247 247 251 257 261 262 264 263 263 267 268 266 265 262 260 261 266 274 279 279 276 269 265 263 255 245 236 234 232 226 224 221 217 214 212 210 206 206 212 214 207 205 210 212 210 208 207 209 206 197 188 185 182 176 175 179 176 178 198 197 186 188 193 201 206 207 231 250 247 259 273 283 294 300 307 311 300 287 286 276 246 231 226 217 211 208
255 250 245 245 249 254 259 260 261 261 261 265 266 264 260 258 257 259 264 272 277 276 275 269 261 259 253 242 234 233 231 225 225 226 223 218 213 209 203 202 211 215 212 209 207 207 210 211 212 213 212 206 196 189 185 180 181 183 178 179 191 194 202 214 206 206 221 227 230 240 246 256 272 280 290 301 305 309 305 290 280 278 257 239 238 231 220 216
250 247 244 245 249 252 256 257 258 259 260 263 263 260 257 255 257 258 262 270 272 270 270 265 257 253 248 239 233 232 230 223 219 223 225 221 216 210 203 201 206 210 213 213 207 203 207 212 215 214 214 211 202 196 188 182 184 182 177 183 191 197 210 218 215 218 231 235 232 233 237 247 266 277 288 298 297 300 302 291 280 282 269 248 242 234 224 221
246 244 244 246 248 250 252 254 256 257 259 262 260 257 255 253 255 257 260 265 266 265 266 265 258 253 249 241 233 231 231 225 220 218 221 222 218 213 208 205 205 206 212 215 210 204 204 210 215 215 216 213 208 203 193 187 187 184 185 194 196 199 207 210 215 224 230 237 239 234 234 241 250 260 278 291 289 293 297 288 277 279 279 264 248 238 230 225
243 244 245 247 248 249 249 251 254 255 258 259 256 254 252 251 253 255 258 263 265 264 265 263 254 249 248 241 233 230 229 228 225 217 214 220 221 218 216 211 207 207 212 214 211 207 206 210 214 216 218 215 211 208 201 196 192 189 193 202 200 199 204 208 216 221 225 234 238 231 230 237 240 246 272 292 290 291 293 282 270 268 276 275 258 246 238 229
242 244 245 245 246 248 248 249 252 255 256 256 253 252 252 251 252 253 257 262 262 263 263 260 253 248 246 242 233 228 227 227 229 225 220 220 218 219 222 218 212 211 213 214 213 210 208 210 212 215 219 217 213 209 206 204 200 197 200 206 204 201 203 211 218 220 225 237 239 234 227 229 240 248 262 279 285 290 292 284 270 258 263 270 264 254 245 237
241 243 242 242 243 246 246 247 251 254 254 253 252 251 251 251 251 252 255 257 258 261 261 258 255 248 245 241 230 224 220 218 223 226 228 224 219 220 225 224 221 218 216 215 215 214 212 211 209 210 217 221 216 211 209 209 207 205 205 207 207 203 202 208 213 217 227 238 244 246 235 225 229 240 252 262 271 283 290 288 277 263 260 265 267 263 252 245
239 240 240 241 242 244 245 247 250 252 252 250 249 248 249 250 250 251 252 252 256 259 255 253 253 247 243 239 227 217 213 212 217 222 227 227 223 224 227 225 224 224 224 221 218 216 215 215 212 210 214 220 219 216 214 212 212 212 210 209 209 206 204 203 205 215 223 222 230 246 241 223 215 225 244 252 256 271 286 288 282 271 266 265 265 264 261 256
236 237 239 240 242 243 245 246 248 249 249 248 247 246 248 249 248 248 250 251 255 254 250 250 251 246 243 239 227 217 211 208 212 217 224 227 223 224 226 223 222 226 230 229 226 221 219 218 217 215 215 215 216 220 221 217 215 214 212 212 211 208 208 208 213 221 221 218 227 241 241 227 219 225 235 240 244 257 274 282 283 278 272 266 260 261 265 264
234 236 238 240 242 243 244 245 246 247 247 247 246 246 247 248 246 246 248 250 253 253 251 251 248 244 244 240 232 224 215 211 210 210 216 223 221 221 224 221 222 228 232 234 231 227 226 224 222 222 220 217 214 220 225 222 218 216 214 215 216 211 208 211 219 223 219 219 230 239 241 237 231 230 232 238 242 239 247 269 279 277 270 265 264 270 272 271
233 235 237 239 242 244 244 244 245 245 246 246 245 245 246 246 244 244 247 250 254 255 251 248 244 243 245 242 235 226 218 216 215 211 215 221 217 216 218 217 223 231 235 238 233 227 228 228 225 227 228 224 219 219 224 225 222 222 222 220 220 217 213 213 220 223 219 222 231 234 238 241 236 233 237 243 244 240 242 257 271 274 270 265 269 275 275 279
234 235 237 239 242 244 244 244 244 245 245 245 244 244 244 244 243 244 246 249 252 251 248 245 242 241 244 243 238 230 222 219 218 214 218 222 217 215 215 213 221 229 233 237 233 227 227 225 223 227 231 229 226 223 224 225 224 228 231 227 224 224 221 218 220 222 223 226 229 229 232 239 238 237 240 243 250 256 254 251 263 276 275 268 270 273 273 282
236 237 238 240 242 243 244 244 245 245 245 244 242 242 243 243 243 244 244 245 247 248 248 246 241 239 241 241 238 234 228 224 221 217 218 221 220 220 219 214 219 225 228 234 234 229 227 222 218 222 226 228 227 225 224 223 222 226 233 233 226 222 222 224 223 223 226 230 230 229 232 239 241 241 238 237 248 259 255 247 251 263 266 264 268 273 271 274
238 238 240 241 242 243 244 244 244 243 243 242 241 241 243 242 243 243 242 243 247 249 249 245 239 237 240 240 238 236 231 228 226 221 219 220 221 223 223 219 222 227 227 232 236 232 227 223 218 219 223 227 228 225 223 222 221 223 229 233 230 223 223 227 226 224 228 233 231 229 234 238 242 245 241 238 246 254 254 247 241 242 248 251 258 266 268 266
239 240 241 241 242 243 243 243 243 242 241 241 239 239 241 241 242 244 244 244 248 250 249 244 238 236 238 238 238 236 234 232 231 228 224 222 222 225 225 223 226 230 230 235 240 235 227 226 222 219 223 231 231 226 222 220 220 221 225 227 227 225 227 230 227 222 227 235 233 230 234 237 240 245 243 239 242 248 251 247 241 241 243 239 248 257 257 257
240 241 241 241 241 241 241 241 242 241 240 240 239 239 240 241 243 245 245 245 247 250 248 244 239 236 236 237 237 237 236 235 235 234 230 225 223 226 228 226 227 232 234 237 237 228 223 224 222 218 219 227 231 228 224 222 222 222 221 220 219 222 228 230 224 219 222 233 234 231 234 236 237 242 242 241 243 245 245 243 239 240 239 232 238 248 248 247
241 241 240 240 240 240 240 240 241 241 239 239 239 239 240 241 243 244 245 246 247 249 248 244 241 238 236 236 237 237 237 237 235 234 232 226 222 224 228 227 225 227 229 229 227 223 221 221 218 216 216 219 227 228 225 224 225 221 217 217 217 220 225 227 223 221 223 228 230 230 233 235 238 242 242 241 246 250 249 243 238 238 241 238 236 240 244 245
241 241 240 240 239 239 238 239 239 239 239 239 239 239 239 240 241 243 245 246 248 249 247 243 239 236 234 235 236 235 237 239 238 234 231 228 223 221 223 223 222 221 221 221 223 223 223 222 220 217 215 217 224 227 226 226 226 219 213 214 217 220 226 228 225 223 225 228 229 233 238 240 241 243 244 243 244 247 250 247 240 237 240 243 242 242 246 248